This is the latest recevied weather packets stored in our database for station/object K5OLV. If no packets are shown the sender has not sent any weather packets the latest 1 day(s).
| Time | Temp. | Humidity | Pressure | Rain* | Wind** | Luminosity | Snow |
|---|---|---|---|---|---|---|---|
| 1778089663 | 18.33° C | 98% | 1011.5 hPa | 3.05 mm | - | 36 W/m² | - |
| 1778088451 | 17.78° C | 98% | 1011.4 hPa | 0 mm | - | 96 W/m² | - |
| 1778087240 | 17.78° C | 98% | 1011.4 hPa | 0 mm | - | 66 W/m² | - |
| 1778086635 | 18.33° C | 98% | 1011.3 hPa | 0 mm | - | 83 W/m² | - |
| 1778085117 | 17.78° C | 98% | 1011 hPa | 0 mm | - | 186 W/m² | - |
| 1778084511 | 17.78° C | 98% | 1011.2 hPa | 0 mm | - | 140 W/m² | - |
| 1778084208 | 17.78° C | 98% | 1011.1 hPa | 0 mm | - | 291 W/m² | - |
| 1778080650 | 17.78° C | 98% | 1011.9 hPa | 0 mm | - | 239 W/m² | - |
| 1778079133 | 16.67° C | 98% | 1011.2 hPa | 0 mm | - | 149 W/m² | - |
| 1778078225 | 16.67° C | 98% | 1010.9 hPa | 7.11 mm | - | 44 W/m² | - |
| 1778077621 | 16.67° C | 97% | 1012.8 hPa | 10.67 mm | - | 20 W/m² | - |
| 1778077016 | 17.22° C | 97% | 1011.7 hPa | 11.94 mm | - | 9 W/m² | - |
| 1778076714 | 17.22° C | 97% | 1012.1 hPa | 8.89 mm | - | 10 W/m² | - |
| 1778075198 | 17.22° C | 95% | 1011.4 hPa | 1.78 mm | - | 12 W/m² | - |
| 1778074894 | 17.22° C | 95% | 1011.4 hPa | 0 mm | - | 14 W/m² | - |
| 1778073986 | 17.22° C | 94% | 1011.4 hPa | 0 mm | - | 15 W/m² | - |
| 1778073380 | 17.22° C | 94% | 1011.2 hPa | 0 mm | - | 12 W/m² | - |
| 1778073076 | 17.22° C | 94% | 1011.5 hPa | 0 mm | - | 9 W/m² | - |
| 1778072169 | 17.22° C | 94% | 1010.8 hPa | 0 mm | - | 10 W/m² | - |
| 1778070959 | 17.22° C | 93% | 1010.8 hPa | 0 mm | - | 4 W/m² | - |
| 1778069749 | 17.22° C | 93% | 1010.4 hPa | 0 mm | - | 7 W/m² | - |
| 1778068840 | 17.78° C | 91% | 1009.8 hPa | 0 mm | - | 11 W/m² | - |
| 1778068538 | 17.78° C | 91% | 1010 hPa | 0 mm | - | 10 W/m² | - |
| 1778067632 | 17.78° C | 91% | 1009.5 hPa | 0 mm | - | 11 W/m² | - |
| 1778066420 | 17.78° C | 90% | 1009.7 hPa | 0 mm | - | 3 W/m² | - |
* Rain latest hour (hover to see other rain measurements)
** Current wind speed in m/s (hover to see current wind gust speed)